Change the Weather History Date:

Sunday, November 4, 2012

  Actual Average Record
Temperature  
Mean Temperature 49 °F -  
Max Temperature 61 °F 56 °F 75 °F (2008)
Min Temperature 37 °F 40 °F 26 °F (2002)
Degree Days  
Heating Degree Days 16    
Moisture  
Dew Point 36 °F    
Average Humidity 62    
Maximum Humidity 86    
Minimum Humidity 42    
Precipitation  
Precipitation 0.00 in - - ()
Sea Level Pressure  
Sea Level Pressure 30.15 in    
Wind  
Wind Speed 2 mph (SSE)    
Max Wind Speed 12 mph    
Max Gust Speed 20 mph    
Visibility 9 miles    
Events      
Averages and records for this station are not official NWS values.
T = Trace of Precipitation, MM = Missing Value Source: NWS Daily Summary

Daily Weather History Graph

Daily Weather History Graph

Search for Another Location

Airport or City:

Trip Planner

Search our weather history database for the weather conditions in past years. The results will help you decide how hot, cold, wet, or windy it might be!

Date:

Astronomy

Nov. 04, 2012 Rise Set
Actual Time 6:49 AM CST 5:13 PM CST
Civil Twilight 6:21 AM CST 5:41 PM CST
Nautical Twilight 5:50 AM CST 6:13 PM CST
Astronomical Twilight 5:18 AM CST 6:44 PM CST
Moon 9:52 PM CST (11/4) 11:33 AM CST (11/4)
Length of Visible Light 11h 19m
Length of Day
10h 23m
Waning Gibbous, 72% of the Moon is Illuminated
Nov 4
Waning Gibbous
Nov 6
Last Quarter
Nov 13
New
Nov 20
First Quarter
Nov 28
Full

Hourly Weather History & Observations

Time (CST) Temp. Dew Point Humidity Pressure Visibility Wind Dir Wind Speed Gust Speed Precip Events Conditions
12:54 AM 39.9 °F 34.0 °F 79% 30.21 in 10.0 mi Calm Calm - N/A   Clear
1:54 AM 39.0 °F 33.1 °F 79% 30.22 in 9.0 mi Calm Calm - N/A   Clear
1:54 AM 39.0 °F 34.0 °F 82% 30.20 in 10.0 mi Calm Calm - N/A   Clear
2:54 AM 37.9 °F 34.0 °F 86% 30.19 in 8.0 mi Calm Calm - N/A   Clear
3:54 AM 37.0 °F 33.1 °F 86% 30.19 in 9.0 mi Calm Calm - N/A   Clear
4:54 AM 37.9 °F 33.1 °F 83% 30.21 in 10.0 mi Calm Calm - N/A   Clear
5:54 AM 39.0 °F 35.1 °F 86% 30.22 in 8.0 mi Calm Calm - N/A   Scattered Clouds
6:54 AM 39.9 °F 34.0 °F 79% 30.23 in 8.0 mi Calm Calm - N/A   Overcast
7:54 AM 42.1 °F 36.0 °F 79% 30.24 in 7.0 mi Calm Calm - N/A   Clear
8:54 AM 46.0 °F 37.9 °F 73% 30.24 in 7.0 mi Calm Calm - N/A   Clear
9:54 AM 52.0 °F 37.9 °F 59% 30.22 in 10.0 mi Variable 3.5 mph - N/A   Clear
10:54 AM 55.9 °F 37.0 °F 49% 30.20 in 10.0 mi SW 5.8 mph - N/A   Clear
11:54 AM 57.9 °F 36.0 °F 44% 30.17 in 10.0 mi SSE 5.8 mph - N/A   Clear
12:54 PM 60.1 °F 37.0 °F 42% 30.14 in 10.0 mi South 8.1 mph - N/A   Clear
1:54 PM 61.0 °F 37.9 °F 42% 30.10 in 10.0 mi SSW 8.1 mph - N/A   Clear
2:54 PM 61.0 °F 37.9 °F 42% 30.08 in 10.0 mi SSE 11.5 mph 19.6 mph N/A   Clear
3:54 PM 59.0 °F 37.9 °F 46% 30.07 in 10.0 mi South 10.4 mph - N/A   Clear
4:54 PM 57.9 °F 37.9 °F 47% 30.07 in 10.0 mi SSE 9.2 mph - N/A   Clear
5:54 PM 57.0 °F 37.9 °F 49% 30.07 in 10.0 mi SE 6.9 mph - N/A   Clear
6:54 PM 57.0 °F 37.9 °F 49% 30.06 in 10.0 mi SE 8.1 mph - N/A   Clear
7:54 PM 57.0 °F 37.9 °F 49% 30.05 in 10.0 mi SE 8.1 mph - N/A   Clear
8:54 PM 55.0 °F 37.9 °F 53% 30.05 in 10.0 mi ESE 5.8 mph - N/A   Overcast
9:54 PM 54.0 °F 37.9 °F 55% 30.04 in 10.0 mi SE 5.8 mph - N/A   Overcast
10:54 PM 54.0 °F 39.0 °F 57% 30.04 in 10.0 mi Calm Calm - N/A   Overcast